Regional Weather Roundup
Issued by NWS State College, PA

Home | Current Version | Previous Version | Graphics & Text | Print | Product List | Glossary Off
Versions: 1 2 3 4 5 6 7 8 9 10 11 12 13 14 15 16 17 18 19 20 21 22 23 24 25 26 27 28 29 30 31 32 33 34 35 36 37 38 39 40 41 42 43 44 45 46 47 48 49 50

000
ASUS41 KCTP 222303
RWRCTP

REGIONAL WEATHER ROUNDUP
NATIONAL WEATHER SERVICE STATE COLLEGE PA
700 PM EDT FRI MAY 22 2015

Note: "fair" indicates few or no clouds below 12,000 feet with no
significant weather and/or obstructions to visibility.

* = STATION THAT DOES NOT REPORT PRECIPITATION /E.G. RAIN...SNOW...ETC/
    THUNDER OR FOG.

PAZ002>004-007>009-013>016-020>023-029>032-230000-
WESTERN PENNSYLVANIA

CITY           SKY/WX    TMP DP  RH WIND       PRES   REMARKS
ERIE           SUNNY     55  25  31 NW9       30.25R
MEADVILLE      SUNNY     52  14  22 NW15G24   30.25R
FRANKLIN*      SUNNY     54  27  35 W8G18     30.25R
NEW CASTLE     FAIR      60  33  36 NW10      30.25R
BEAVER COUNTY  SUNNY     61  28  29 NW12G17   30.23R
BUTLER*        SUNNY     61  28  29 NW12G18   30.24R
PITTSBURGH INT MOSUNNY   63  27  25 NW21G28   30.21R
PITTSBURGH     SUNNY     62  25  24 NW13G23   30.18R
INDIANA*       SUNNY     61  28  29 NW13G23   30.21R
LATROBE        SUNNY     63  32  31 N14       30.20R
WASHINGTON CO* SUNNY     64  36  34 N10       30.21R
$$

PAZ004>006-010>012-017>019-024>028-033>037-041-042-045-046-049>053-230000-
CENTRAL PENNSYLVANIA

CITY           SKY/WX    TMP DP  RH WIND       PRES   REMARKS
BRADFORD       MOSUNNY   52  31  44 NW22G28   30.16R
DUBOIS         SUNNY     57  23  26 W16G25    30.17R
CLEARFIELD     SUNNY     60  21  22 NW16G25   30.15R
JOHNSTOWN      SUNNY     58  23  26 NW29G37   30.16R
ALTOONA        SUNNY     63  29  27 W15G31    30.13R
STATE COLLEGE  SUNNY     63  23  22 W13G22    30.11R
WILLIAMSPORT   SUNNY     67  20  16 W14G28    30.04R
SELINSGROVE    SUNNY     68  27  21 NW16G25   30.06R
FT INDIANTOWN  SUNNY     70  33  25 W8G21     30.04R
CAPITAL CITY   MOSUNNY   71  33  24 NW18G26   30.05R
HARRISBURG     MOSUNNY   70  37  29 NW21G26   30.04R
YORK           MOSUNNY   68  43  40 W12G25    30.07R
$$

PAZ038>040-043-044-047-048-054-055-060>062-067>071-230000-
EASTERN PENNSYLVANIA

CITY           SKY/WX    TMP DP  RH WIND       PRES   REMARKS
SCRANTON       MOSUNNY   66  22  18 N21G29    30.01R
MOUNT POCONO   PTSUNNY   61  30  31 NW9G16    30.01R
ALLENTOWN      MOSUNNY   68  46  45 W8        30.00S
QUAKERTOWN*    CLEAR     68  41  37 W7        30.01S
READING        MOSUNNY   71  30  21 W14G30    30.01R
LANCASTER      SUNNY     68  41  37 W17       30.03R
COATESVILLE    PTCLDY    68  41  37 W16       30.04R
POTTSTOWN      SUNNY     70  33  25 W13G22    30.03R
BLUE BELL      SUNNY     73  34  23 W9G20     30.00R
DOYLESTOWN     SUNNY     68  32  26 W8        30.00R
WILLOW GROVE   NOT AVBL
NORTH PHILA    SUNNY     74  32  21 W16       30.01R
PHILADELPHIA   MOSUNNY   74  37  26 W17G25    30.02R
$$



USA.gov is the U.S. government's official web portal to all federal, state and local government web resources and services.